Location: Bettgenhausen
(50.6463°N, 7.5681°E)
Time: 02:32:19
(UTC+00:00)

SL-08 RB Rocket - Pass Details

Date: 27 February 2020
Orbit: 648 x 683 km, 97.8° (Epoch: 05 April)

Event Time Altitude Azimuth Distance (km) Brightness Sun altitude
Exits shadow 19:42:34 40° 202° (SSW) 962 4.5 -25.2°
Maximum altitude 19:43:56 58° 259° (W) 761 4.1 -25.4°
Drops below altitude 10° 19:48:22 10° 339° (NNW) 2,063 6.7 -26.1°
Sets 19:50:38 0° 344° (NNW) 2,978 7.6 -26.4°
